Weather History for KRXE - January, 2014

Change the Weather History Date:

Friday, January 10, 2014

  Actual Average Record
Temperature  
Mean Temperature 26 °F 20 °F  
Max Temperature 31 °F 29 °F 40 °F (2007)
Min Temperature 21 °F 12 °F 1 °F (2011)
Degree Days  
Heating Degree Days 39 45  
Month to date heating degree days 455 450  
Since 1 July heating degree days 3794 3832  
Cooling Degree Days 0 0  
Month to date cooling degree days 0 0  
Year to date cooling degree days 0 0  
Moisture  
Dew Point 22 °F    
Average Humidity 85    
Maximum Humidity 96    
Minimum Humidity 74    
Precipitation  
Precipitation 0.00 in 0.03 in 0.14 in (2013)
Month to date precipitation 0.40 0.31  
Year to date precipitation 0.40 0.31  
Sea Level Pressure  
Sea Level Pressure 29.98 in    
Wind  
Wind Speed 10 mph (SW)    
Max Wind Speed 28 mph    
Max Gust Speed 33 mph    
Visibility 10 miles    
Events      
T = Trace of Precipitation, MM = Missing Value Source: NWS Daily Summary

Daily Weather History Graph

Daily Weather History Graph

Search for Another Location

Airport or City:

Trip Planner

Search our weather history database for the weather conditions in past years. The results will help you decide how hot, cold, wet, or windy it might be!

Date:

Astronomy

Jan. 10, 2014 Rise Set
Actual Time 8:00 AM MST 5:09 PM MST
Civil Twilight 7:27 AM MST 5:42 PM MST
Nautical Twilight 6:52 AM MST 6:17 PM MST
Astronomical Twilight 6:17 AM MST 6:52 PM MST
Moon 1:18 PM MST (1/10) 3:08 AM MST (1/10)
Length of Visible Light 10h 14m
Length of Day
9h 09m
Waxing Gibbous, 75% of the Moon is Illuminated
Jan 10
Waxing Gibbous
Jan 15
Full
Jan 23
Last Quarter
Jan 30
New
Feb 6
First Quarter

Hourly Weather History & Observations

Time (MST) Temp. Windchill Dew Point Humidity Pressure Visibility Wind Dir Wind Speed Gust Speed Precip Events Conditions
12:53 AM 24.1 °F 12.0 °F 17.1 °F 75% 29.96 in 10.0 mi South 13.8 mph 20.7 mph N/A   Overcast
1:53 AM 24.1 °F 10.6 °F 18.0 °F 77% 29.96 in 10.0 mi SSW 17.3 mph 21.9 mph N/A   Overcast
2:32 AM 24.1 °F 11.5 °F 19.0 °F 81% 29.85 in 10.0 mi SSW 15.0 mph 24.2 mph N/A   Overcast
2:53 AM 25.0 °F 11.3 °F 19.9 °F 81% 29.94 in 9.0 mi SW 18.4 mph 27.6 mph N/A   Overcast
3:34 AM 25.0 °F 9.9 °F 21.0 °F 85% 29.83 in 9.0 mi SW 23.0 mph 31.1 mph N/A   Overcast
3:53 AM 25.0 °F 10.2 °F 21.0 °F 85% 29.92 in 10.0 mi SW 21.9 mph 29.9 mph N/A   Overcast
4:53 AM 25.0 °F 11.3 °F 21.9 °F 88% 29.91 in 10.0 mi SW 18.4 mph - N/A   Mostly Cloudy
5:05 AM 25.0 °F 12.6 °F 21.9 °F 88% 29.83 in 10.0 mi SW 15.0 mph - N/A   Mostly Cloudy
5:50 AM 26.6 °F 16.2 °F 23.0 °F 86% 29.84 in 10.0 mi SSW 11.5 mph - N/A   Overcast
5:53 AM 26.1 °F 16.2 °F 23.0 °F 88% 29.95 in 10.0 mi SSW 10.4 mph - N/A   Overcast
6:53 AM 26.1 °F 15.6 °F 23.0 °F 88% 29.94 in 10.0 mi SW 11.5 mph - N/A   Overcast
7:53 AM 24.1 °F 18.2 °F 21.0 °F 88% 29.97 in 10.0 mi NW 4.6 mph - N/A   Overcast
8:53 AM 23.0 °F - 21.0 °F 92% 29.98 in 10.0 mi Calm Calm - N/A   Overcast
9:49 AM 24.8 °F 14.6 °F 21.2 °F 86% 29.89 in 10.0 mi WSW 10.4 mph - N/A   Overcast
9:53 AM 25.0 °F 15.5 °F 21.9 °F 88% 30.00 in 10.0 mi WSW 9.2 mph - N/A   Overcast
10:12 AM 24.1 °F 14.4 °F 21.0 °F 88% 29.91 in 10.0 mi West 9.2 mph - N/A   Overcast
10:37 AM 24.1 °F 16.0 °F 21.0 °F 88% 29.92 in 10.0 mi West 6.9 mph - N/A   Overcast
10:53 AM 24.1 °F 15.2 °F 19.9 °F 84% 30.03 in 10.0 mi WSW 8.1 mph - N/A   Overcast
11:16 AM 25.0 °F 14.8 °F 21.0 °F 85% 29.91 in 10.0 mi SW 10.4 mph - N/A   Overcast
11:53 AM 27.0 °F 16.7 °F 24.1 °F 89% 30.01 in 10.0 mi SW 11.5 mph - N/A   Overcast
12:53 PM 28.0 °F 18.1 °F 24.1 °F 85% 30.01 in 10.0 mi WSW 11.5 mph - N/A   Overcast
1:05 PM 28.0 °F 18.1 °F 24.1 °F 85% 29.90 in 10.0 mi WSW 11.5 mph - N/A   Overcast
1:53 PM 28.0 °F 21.7 °F 24.1 °F 85% 29.99 in 10.0 mi West 5.8 mph - N/A   Overcast
2:53 PM 30.9 °F 26.2 °F 26.1 °F 82% 30.00 in 10.0 mi WSW 4.6 mph - N/A   Mostly Cloudy
3:09 PM 30.9 °F 27.5 °F 26.1 °F 82% 29.91 in 10.0 mi WSW 3.5 mph - N/A   Scattered Clouds
3:16 PM 30.9 °F - 26.1 °F 82% 29.91 in 10.0 mi Calm Calm - N/A   Mostly Cloudy
3:53 PM 27.0 °F 17.3 °F 21.9 °F 81% 30.04 in 10.0 mi NNE 10.4 mph - N/A   Overcast
4:53 PM 27.0 °F 18.7 °F 23.0 °F 85% 30.05 in 10.0 mi NE 8.1 mph - N/A   Scattered Clouds
5:53 PM 24.1 °F - 21.0 °F 88% 30.07 in 10.0 mi Calm Calm - N/A   Partly Cloudy
6:53 PM 24.1 °F 14.4 °F 21.0 °F 88% 30.09 in 10.0 mi SSW 9.2 mph - N/A   Mostly Cloudy
7:53 PM 26.1 °F 17.6 °F 21.9 °F 84% 30.11 in 10.0 mi SSW 8.1 mph - N/A   Scattered Clouds
8:53 PM 21.9 °F 12.5 °F 19.0 °F 89% 30.16 in 10.0 mi WSW 8.1 mph - N/A   Overcast
9:34 PM 25.0 °F 16.3 °F 21.0 °F 85% 30.04 in 10.0 mi SSW 8.1 mph - N/A   Mostly Cloudy
9:44 PM 26.1 °F 17.6 °F 23.0 °F 88% 30.05 in 10.0 mi SSW 8.1 mph - N/A   Mostly Cloudy
9:53 PM 27.0 °F 18.0 °F 23.0 °F 85% 30.15 in 10.0 mi SSW 9.2 mph - N/A   Mostly Cloudy
10:13 PM 30.0 °F 20.5 °F 26.1 °F 85% 30.06 in 10.0 mi SSW 11.5 mph - N/A   Mostly Cloudy
10:53 PM 28.9 °F 21.9 °F 25.0 °F 85% 30.17 in 10.0 mi WSW 6.9 mph - N/A   Overcast
11:53 PM 27.0 °F 19.5 °F 24.1 °F 89% 30.16 in 10.0 mi West 6.9 mph - N/A   Overcast